This is the latest recevied weather packets stored in our database for station/object N9GKE-1. If no packets are shown the sender has not sent any weather packets the latest 10 day(s).
| Time | Temp. | Humidity | Pressure | Rain* | Wind** | Luminosity | Snow |
|---|---|---|---|---|---|---|---|
| 1777751949 | 12.22° C | 40% | 1018.7 hPa | 0 mm | - | - | - |
| 1777751578 | 12.22° C | 40% | 1018.8 hPa | 0 mm | - | - | - |
| 1777751355 | 12.22° C | 41% | 1018.9 hPa | 0 mm | - | - | - |
| 1777750979 | 11.11° C | 41% | 1018.9 hPa | 0 mm | - | - | - |
| 1777750750 | 11.11° C | 40% | 1019 hPa | 0 mm | - | - | - |
| 1777750382 | 11.67° C | 40% | 1019 hPa | 0 mm | - | - | - |
| 1777750151 | 11.67° C | 37% | 1019 hPa | 0 mm | - | - | - |
| 1777749778 | 11.67° C | 40% | 1019 hPa | 0 mm | - | - | - |
| 1777749555 | 11.11° C | 46% | 1019.1 hPa | 0 mm | - | - | - |
| 1777749178 | 11.11° C | 42% | 1019.2 hPa | 0 mm | - | - | - |
| 1777748951 | 11.11° C | 40% | 1019.1 hPa | 0 mm | - | - | - |
| 1777748580 | 11.11° C | 42% | 1019.3 hPa | 0 mm | - | - | - |
| 1777748350 | 11.11° C | 41% | 1019.3 hPa | 0 mm | - | - | - |
| 1777747979 | 11.11° C | 41% | 1019.2 hPa | 0 mm | - | - | - |
| 1777747750 | 11.67° C | 42% | 1019.3 hPa | 0 mm | - | - | - |
| 1777747378 | 11.67° C | 41% | 1019.2 hPa | 0 mm | - | - | - |
| 1777747150 | 11.67° C | 45% | 1019.3 hPa | 0 mm | - | - | - |
| 1777746779 | 11.11° C | 38% | 1019.3 hPa | 0 mm | - | - | - |
| 1777746554 | 11.67° C | 41% | 1019.4 hPa | 0 mm | - | - | - |
| 1777746179 | 11.11° C | 44% | 1019.4 hPa | 0 mm | - | - | - |
| 1777745953 | 11.11° C | 42% | 1019.4 hPa | 0 mm | - | - | - |
| 1777745577 | 11.11° C | 43% | 1019.4 hPa | 0 mm | - | - | - |
| 1777745350 | 11.11° C | 41% | 1019.5 hPa | 0 mm | - | - | - |
| 1777744979 | 11.11° C | 43% | 1019.6 hPa | 0 mm | - | - | - |
| 1777744754 | 11.11° C | 44% | 1019.5 hPa | 0 mm | - | - | - |
* Rain latest hour (hover to see other rain measurements)
** Current wind speed in m/s (hover to see current wind gust speed)